Welcome to the New NWS' Forecast!
Most changes are behind the scenes, but click here for differences you might notice.

Regional Weather Roundup (RWR)

Issued by National Weather Service (NWS)

                            
927 
ASUS46 KSEW 220810
RWRWA 

WASHINGTON REGIONAL WEATHER ROUNDUP
NATIONAL WEATHER SERVICE SEATTLE WA
100 AM PDT SAT SEP 22 2018

NOTE:"FAIR" INDICATES FEW OR NO CLOUDS BELOW 12,000 FEET WITH NO 
SIGNIFICANT WEATHER AND/OR OBSTRUCTIONS TO VISIBILITY.

WAZ507-509-555>559-220900-
SEATTLE, TACOMA, EVERETT, AND VICINITY
  
CITY           SKY/WX    TMP DP  RH WIND       PRES   REMARKS
EVERETT        PTCLDY    58  56  93 SE16      29.84F                  
BOEING FIELD   MOCLDY    62  56  80 S9        29.85S                  
RENTON         CLOUDY    61  58  90 VRB6      29.86R                  
SEATAC AIRPORT MOCLDY    62  56  80 S10       29.87R                  
JBLM-MCCHORD   CLOUDY    60  60  99 S12       29.86F                  
PUYALLUP       CLOUDY    61  59  94 CALM      29.88R                  
BREMERTON      CLOUDY    57  55  93 S7        29.84S                  
JBLM-FT LEWIS  NOT AVBL                                               
TACOMA NARROWS PTCLDY    59  56  89 S13       29.86R                  
$$
 
WAZ001-503-506-510-514-515-220900-
NORTH INTERIOR
  
CITY           SKY/WX    TMP DP  RH WIND       PRES   REMARKS
BELLINGHAM     CLOUDY    62  54  74 SE23G30   29.77F                  
FRIDAY HARBOR  CLOUDY    55  52  89 W3        29.79R FOG              
EASTSOUND      CLOUDY    59  57  94 S10G18    29.77R                  
PORT ANGELES   CLOUDY    55  54  96 SW6       29.79R                  
EDIZ HOOK      CLOUDY    53  52  99 CALM      29.78S                  
PORT TOWNSEND  CLOUDY    59  55  88 S9G16     29.77F                  
NAS WHIDBEY    MOCLDY    63  56  78 SE24G32   29.81F                  
ARLINGTON      CLOUDY    60  57  89 SE21G28   29.83F                  
BURLINGTON     CLOUDY    61  57  88 S10G18    29.80S                  
$$
 
WAZ020-022-039-040-504-511-512-220900-
SOUTHWEST INTERIOR
  
CITY           SKY/WX    TMP DP  RH WIND       PRES   REMARKS
SHELTON        LGT RAIN  59  56  89 SW10      29.83S FOG              
OLYMPIA        PTCLDY    57  54  89 S6        29.86S                  
CHEHALIS       MOCLDY    61  55  82 S9        29.87F                  
KELSO          NOT AVBL                                               
VANCOUVER      CLOUDY    65  56  72 S8        29.93S                  
SCAPPOOSE, OR  CLOUDY    63  55  75 W5        29.92R                  
PORTLAND, OR   CLOUDY    64  55  72 S14       29.94R                  
$$
 
WAZ021-516-517-220900-
WASHINGTON COAST
  
CITY           SKY/WX    TMP DP  RH WIND       PRES   REMARKS
FORKS          LGT RAIN  58  57  97 S9        29.77F                  
HOQUIAM        CLOUDY    61  59  93 S20       29.84S                  
ASTORIA, OR    CLOUDY    61  59  93 S20G30    29.88S                  
$$
 
WAZ019-023-024-040-567>569-220900-
CASCADE MOUNTAINS AND COLUMBIA GORGE
  
CITY           SKY/WX    TMP DP  RH WIND       PRES   REMARKS
STAMPEDE PASS  CLOUDY    50  49  96 VRB7      29.92S                  
TROUTDALE, OR  LGT RAIN  60  56  86 SW8       29.95R FOG              
HOOD RIVER, OR PTSUNNY   61  50  67 W7        29.90F                  
THE DALLES, OR NOT AVBL                                               
$$

WAZ026-027-041>044-520-521-220900-
EAST SLOPES
  
CITY           SKY/WX    TMP DP  RH WIND       PRES   REMARKS
OMAK           PTCLDY    54  49  83 N6        29.79R                  
WENATCHEE      PTCLDY    58  46  64 N3        29.80S                  
ELLENSBURG     PTCLDY    57  48  72 CALM      29.83F                  
YAKIMA         MOCLDY    64  46  52 NE5       29.84S                  
SUNNYSIDE ARPT CLOUDY    68  49  50 W13G22    29.84F                  
YAKIMA TC      NOT AVBL                                               
$$

WAZ028-034-035-220900-
COLUMBIA BASIN
  
CITY           SKY/WX    TMP DP  RH WIND       PRES   REMARKS
EPHRATA        MOCLDY    57  43  59 S7        29.80F                  
MOSES LAKE     CLOUDY    59  45  59 CALM      29.82S                  
PASCO          CLOUDY    68  42  38 SW6       29.85R                  
RICHLAND ARPT  CLOUDY    70  46  41 SW8       29.84S                  
HERMISTON, OR  CLOUDY    68  46  45 SW10      29.87R                  
$$

WAZ036>038-220900-
NORTHEAST WASHINGTON
  
CITY           SKY/WX    TMP DP  RH WIND       PRES   REMARKS
SPOKANE GEIGER CLOUDY    64  36  35 SW12      29.85F                  
SPOKANE FELTS  CLOUDY    59  42  53 NE3       29.85F                  
FAIRCHILD AFB  NOT AVBL                                               
COEURDALENE,ID CLOUDY    50  41  71 CALM      29.87S                  
DEER PARK      CLOUDY    50  40  68 CALM      29.85S                  
$$

WAZ029>033-220900-
SOUTHEAST WASHINGTON
  
CITY           SKY/WX    TMP DP  RH WIND       PRES   REMARKS
PULLMAN        CLOUDY    58  33  39 CALM      29.92S                  
LEWISTON, ID   CLOUDY    63  37  38 E3        29.86S                  
WALLA WALLA    CLOUDY    69  40  34 SW10      29.89R                  
PENDLETON, OR  CLOUDY    64  40  41 W8        29.90S                  
$$